Location: Huisseau
(47.5933°N, 1.4533°E)
Time: 18:55:58
(UTC+00:00)

CENTAUR R/B - Pass Details

Date: 22 November 2025
Orbit: 633 x 1547 km, 63.4° (Epoch: 06 December)

Event Time Altitude Azimuth Distance (km) Brightness Sun altitude
Rises 19:04:50 0° 196° (SSW) 3,171 5.4 -28.9°
Reaches altitude 10° 19:07:04 10° 189° (S) 2,344 4.6 -29.3°
Enters shadow 19:08:04 16° 185° (S) 2,002 4.1 -29.5°
